^^
Datos históricos de la estación: Murcia-Puente Tocinos
Diario Informe para Agosto 8, 2019 Unidades:  Métrico    Inglés   Ambas
Diario Semanal Mensual Anual Configurable
  Máximo: Mínimo: Media:
Temperatura: 37.6 °C 25.9 °C 31.5 °C
Punto de rocio: 17.9 °C 10.5 °C 14 °C
Humedad: 56% 21% 36%
Velocidad viento: 22.5km/h 2.3km/h 7.7km/h
Racha viento: 37.0km/h - -
Viento- - SSW
Presión: 1011.6 hPa 1008.9 hPa -
Precipitación: 0.0 mm    
Historical Graphs
 
 
Tabla de datos para Agosto 8, 2019
Hora Temperatura Punto de rocio Presión Viento Velocidad viento Racha viento Humedad Intensidad lluvia(por hora) Nubes
00:00 28.2 °C 17.1 °C 1010.5 hPa NNW 3.9 km/h 7.4 km/h 51% 0.0 mm CLR
00:05 28.2 °C 17.1 °C 1010.2 hPa NNW 3.9 km/h 3.7 km/h 51% 0.0 mm CLR
00:10 28.1 °C 17.3 °C 1010.2 hPa NNE 2.9 km/h 3.9 km/h 52% 0.0 mm CLR
00:15 28.1 °C 17.6 °C 1010.2 hPa NNE 2.9 km/h 5.8 km/h 53% 0.0 mm CLR
00:20 27.9 °C 17.4 °C 1010.1 hPa NE 3.9 km/h 5.6 km/h 53% 0.0 mm CLR
00:25 27.9 °C 17.4 °C 1010.1 hPa NE 3.9 km/h 7.4 km/h 53% 0.0 mm CLR
00:30 27.9 °C 17.4 °C 1010.1 hPa NE 4.7 km/h 7.4 km/h 53% 0.0 mm CLR
00:35 28.0 °C 16.9 °C 1009.9 hPa NE 4.7 km/h 7.4 km/h 51% 0.0 mm CLR
00:40 28.0 °C 17.2 °C 1009.9 hPa NNW 4.7 km/h 7.4 km/h 52% 0.0 mm CLR
00:45 27.8 °C 17.1 °C 1009.9 hPa ENE 4.7 km/h 2.9 km/h 52% 0.0 mm CLR
00:50 27.8 °C 16.7 °C 1009.9 hPa ENE 2.3 km/h   51% 0.0 mm CLR
00:55 27.8 °C 17.1 °C 1009.9 hPa NW 2.3 km/h 5.6 km/h 52% 0.0 mm CLR
01:00 27.8 °C 17.3 °C 1009.9 hPa NW 2.9 km/h 3.9 km/h 53% 0.0 mm CLR
01:05 27.7 °C 17.6 °C 1010.1 hPa NW 2.9 km/h   54% 0.0 mm CLR
01:10 27.7 °C 17.6 °C 1010.1 hPa WNW 2.3 km/h 5.6 km/h 54% 0.0 mm CLR
01:15 27.5 °C 17.4 °C 1010.1 hPa NNW 2.3 km/h 3.7 km/h 54% 0.0 mm CLR
01:20 27.4 °C 17.3 °C 1010.1 hPa NNW 2.9 km/h   54% 0.0 mm CLR
01:25 27.4 °C 17.6 °C 1010.1 hPa WNW 2.9 km/h 7.4 km/h 55% 0.0 mm CLR
01:30 27.4 °C 17.6 °C 1010.1 hPa West 3.9 km/h 5.6 km/h 55% 0.0 mm CLR
01:35 27.3 °C 17.4 °C 1010.3 hPa WNW 3.9 km/h 5.6 km/h 55% 0.0 mm CLR
01:40 27.3 °C 17.8 °C 1010.3 hPa WNW 2.9 km/h   56% 0.0 mm CLR
01:45 27.3 °C 17.8 °C 1010.3 hPa WNW 2.9 km/h 5.6 km/h 56% 0.0 mm CLR
01:50 27.3 °C 17.4 °C 1010.3 hPa SSE 2.9 km/h 7.4 km/h 55% 0.0 mm CLR
01:55 27.4 °C 17.6 °C 1010.3 hPa South 2.9 km/h 5.6 km/h 55% 0.0 mm CLR
02:00 27.5 °C 17.4 °C 1010.3 hPa SSE 5.0 km/h 10.0 km/h 54% 0.0 mm CLR
02:05 27.4 °C 17.3 °C 1010.2 hPa SSW 5.0 km/h 9.3 km/h 54% 0.0 mm CLR
02:10 27.4 °C 17.0 °C 1010.2 hPa SSW 6.9 km/h 9.5 km/h 53% 0.0 mm CLR
02:15 27.4 °C 16.7 °C 1010.2 hPa South 6.9 km/h 11.1 km/h 52% 0.0 mm CLR
02:20 27.5 °C 16.4 °C 1010.2 hPa SSW 6.9 km/h 9.3 km/h 51% 0.0 mm CLR
02:25 27.6 °C 16.2 °C 1010.2 hPa SW 6.9 km/h 9.3 km/h 50% 0.0 mm CLR
02:30 27.7 °C 16.3 °C 1010.2 hPa SW 6.4 km/h 9.3 km/h 50% 0.0 mm CLR
02:35 27.7 °C 16.0 °C 1010.1 hPa SW 6.4 km/h 9.3 km/h 49% 0.0 mm CLR
02:40 27.8 °C 15.8 °C 1010.1 hPa SW 6.4 km/h 9.3 km/h 48% 0.0 mm CLR
02:45 27.8 °C 15.8 °C 1010.1 hPa SW 6.4 km/h 9.3 km/h 48% 0.0 mm CLR
02:50 27.8 °C 15.8 °C 1009.9 hPa SW 6.4 km/h 9.3 km/h 48% 0.0 mm CLR
02:55 27.8 °C 15.4 °C 1009.9 hPa WSW 6.4 km/h 9.3 km/h 47% 0.0 mm CLR
03:00 27.8 °C 15.4 °C 1009.9 hPa SW 5.8 km/h 9.3 km/h 47% 0.0 mm CLR
03:05 27.8 °C 15.4 °C 1009.9 hPa SW 5.8 km/h 5.6 km/h 47% 0.0 mm CLR
03:10 27.8 °C 15.1 °C 1009.9 hPa SW 6.4 km/h 10.3 km/h 46% 0.0 mm CLR
03:15 27.7 °C 15.1 °C 1009.9 hPa SW 6.4 km/h 10.0 km/h 46% 0.0 mm CLR
03:20 27.7 °C 15.1 °C 1009.8 hPa South 7.6 km/h 11.1 km/h 46% 0.0 mm CLR
03:25 27.7 °C 15.1 °C 1009.8 hPa South 7.6 km/h 11.1 km/h 46% 0.0 mm CLR
03:30 27.6 °C 14.9 °C 1009.8 hPa SSW 8.7 km/h 13.0 km/h 46% 0.0 mm CLR
03:35 27.5 °C 14.8 °C 1009.7 hPa SSW 8.7 km/h 14.8 km/h 46% 0.0 mm CLR
03:40 27.4 °C 14.8 °C 1009.7 hPa SW 8.7 km/h 9.3 km/h 46% 0.0 mm CLR
03:45 27.4 °C 14.4 °C 1009.7 hPa SSW 8.7 km/h 11.1 km/h 45% 0.0 mm CLR
03:50 27.5 °C 14.5 °C 1009.7 hPa SW 6.9 km/h 9.5 km/h 45% 0.0 mm CLR
03:55 27.5 °C 14.5 °C 1009.7 hPa SW 6.9 km/h 9.3 km/h 45% 0.0 mm CLR
04:00 27.4 °C 14.4 °C 1009.7 hPa SSW 6.4 km/h 9.3 km/h 45% 0.0 mm CLR
04:05 27.4 °C 14.4 °C 1009.6 hPa SW 6.4 km/h 11.1 km/h 45% 0.0 mm CLR
04:10 27.3 °C 14.3 °C 1009.6 hPa SW 6.4 km/h 9.3 km/h 45% 0.0 mm CLR
04:15 27.3 °C 14.3 °C 1009.6 hPa SW 6.4 km/h 7.6 km/h 45% 0.0 mm CLR
04:20 27.2 °C 14.2 °C 1009.5 hPa SW 4.8 km/h 8.0 km/h 45% 0.0 mm CLR
04:25 27.1 °C 14.2 °C 1009.5 hPa WSW 5.8 km/h 7.4 km/h 45% 0.0 mm CLR
04:30 26.8 °C 14.2 °C 1009.5 hPa WSW 5.0 km/h 7.6 km/h 46% 0.0 mm CLR
04:35 26.7 °C 14.1 °C 1009.5 hPa West 5.0 km/h 7.4 km/h 46% 0.0 mm CLR
04:40 26.6 °C 14.3 °C 1009.5 hPa WSW 5.0 km/h 3.7 km/h 47% 0.0 mm CLR
04:45 26.4 °C 14.2 °C 1009.5 hPa SW 5.0 km/h 7.4 km/h 47% 0.0 mm CLR
04:50 26.4 °C 14.2 °C 1009.6 hPa WSW 3.9 km/h 7.4 km/h 47% 0.0 mm CLR
04:55 26.4 °C 14.2 °C 1009.6 hPa West 3.9 km/h 9.3 km/h 47% 0.0 mm CLR
05:00 26.4 °C 14.2 °C 1009.6 hPa SW 6.9 km/h 11.1 km/h 47% 0.0 mm CLR
05:05 26.5 °C 13.9 °C 1009.5 hPa WSW 6.9 km/h 13.0 km/h 46% 0.0 mm CLR
05:10 26.6 °C 14.1 °C 1009.5 hPa West 7.6 km/h 7.4 km/h 46% 0.0 mm CLR
05:15 26.6 °C 14.1 °C 1009.5 hPa SW 7.6 km/h 5.6 km/h 46% 0.0 mm CLR
05:20 26.6 °C 14.1 °C 1009.5 hPa WSW 3.9 km/h 9.3 km/h 46% 0.0 mm CLR
05:25 26.6 °C 14.1 °C 1009.5 hPa SW 3.9 km/h 7.4 km/h 46% 0.0 mm CLR
05:30 26.6 °C 14.1 °C 1009.5 hPa SW 5.0 km/h 7.4 km/h 46% 0.0 mm CLR
05:35 26.6 °C 13.7 °C 1009.6 hPa SW 5.0 km/h 7.4 km/h 45% 0.0 mm CLR
05:40 26.5 °C 13.9 °C 1009.6 hPa SW 3.9 km/h 5.6 km/h 46% 0.0 mm CLR
05:45 26.4 °C 13.5 °C 1009.6 hPa SSW 3.9 km/h 7.4 km/h 45% 0.0 mm CLR
05:50 26.5 °C 13.6 °C 1009.9 hPa WSW 3.9 km/h 5.6 km/h 45% 0.0 mm CLR
05:55 26.4 °C 13.2 °C 1009.9 hPa SSW 3.9 km/h 7.6 km/h 44% 0.0 mm CLR
06:00 26.4 °C 13.2 °C 1009.9 hPa South 5.8 km/h 11.1 km/h 44% 0.0 mm CLR
06:05 26.4 °C 12.8 °C 1010.1 hPa SSW 5.8 km/h 11.1 km/h 43% 0.0 mm CLR
06:10 26.4 °C 13.2 °C 1010.1 hPa SW 8.4 km/h 7.4 km/h 44% 0.0 mm CLR
06:15 26.3 °C 13.1 °C 1010.1 hPa SSW 8.4 km/h 7.4 km/h 44% 0.0 mm CLR
06:20 26.4 °C 13.2 °C 1010.1 hPa SW 5.8 km/h 11.1 km/h 44% 0.0 mm CLR
06:25 26.5 °C 12.9 °C 1010.1 hPa WSW 5.8 km/h 7.4 km/h 43% 0.0 mm CLR
06:30 26.5 °C 13.3 °C 1010.1 hPa WNW 4.7 km/h 5.6 km/h 44% 0.0 mm CLR
06:35 26.4 °C 13.2 °C 1010.2 hPa WNW 4.7 km/h 5.6 km/h 44% 0.0 mm CLR
06:40 26.3 °C 13.4 °C 1010.2 hPa WNW 2.9 km/h 7.4 km/h 45% 0.0 mm CLR
06:45 26.2 °C 13.3 °C 1010.2 hPa WNW 2.9 km/h 5.6 km/h 45% 0.0 mm CLR
06:50 26.1 °C 13.2 °C 1010.3 hPa West 3.2 km/h 7.4 km/h 45% 0.0 mm CLR
06:55 25.9 °C 13.1 °C 1010.3 hPa WNW 3.2 km/h 7.4 km/h 45% 0.0 mm CLR
07:00 25.9 °C 13.1 °C 1010.3 hPa WSW 5.0 km/h 7.4 km/h 45% 0.0 mm CLR
07:05 25.9 °C 13.1 °C 1010.5 hPa SW 5.0 km/h 5.6 km/h 45% 0.0 mm CLR
07:10 26.1 °C 12.9 °C 1010.5 hPa SW 4.7 km/h 7.4 km/h 44% 0.0 mm CLR
07:15 26.3 °C 12.7 °C 1010.5 hPa SW 4.7 km/h 7.4 km/h 43% 0.0 mm CLR
07:20 26.6 °C 12.6 °C 1010.7 hPa SW 5.0 km/h 11.1 km/h 42% 0.0 mm CLR
07:25 26.9 °C 12.6 °C 1010.7 hPa WSW 5.0 km/h 9.3 km/h 41% 0.0 mm CLR
07:30 27.0 °C 12.6 °C 1010.7 hPa West 6.4 km/h 9.3 km/h 41% 0.0 mm CLR
07:35 27.0 °C 12.6 °C 1010.8 hPa WSW 6.4 km/h 7.4 km/h 41% 0.0 mm CLR
07:40 26.9 °C 12.6 °C 1010.8 hPa SW 4.7 km/h 7.6 km/h 41% 0.0 mm CLR
07:45 26.9 °C 12.6 °C 1010.8 hPa SW 4.7 km/h 7.4 km/h 41% 0.0 mm CLR
07:50 27.1 °C 12.3 °C 1010.9 hPa South 4.7 km/h 9.3 km/h 40% 0.0 mm CLR
07:55 27.3 °C 12.5 °C 1010.9 hPa SW 4.7 km/h 11.9 km/h 40% 0.0 mm CLR
08:00 27.4 °C 12.2 °C 1010.9 hPa SW 7.6 km/h 13.7 km/h 39% 0.0 mm CLR
08:05 27.5 °C 12.3 °C 1010.8 hPa SW 7.6 km/h 11.9 km/h 39% 0.0 mm CLR
08:10 27.6 °C 12.4 °C 1010.8 hPa SW 6.9 km/h 9.3 km/h 39% 0.0 mm CLR
08:15 27.7 °C 12.5 °C 1010.8 hPa WSW 6.9 km/h 13.0 km/h 39% 0.0 mm CLR
08:20 27.7 °C 12.5 °C 1010.9 hPa SSW 6.4 km/h 9.3 km/h 39% 0.0 mm CLR
08:25 27.9 °C 12.3 °C 1010.9 hPa SW 6.4 km/h 11.1 km/h 38% 0.0 mm CLR
08:30 27.9 °C 12.3 °C 1010.9 hPa SW 7.6 km/h 13.0 km/h 38% 0.0 mm CLR
08:35 28.1 °C 12.4 °C 1011.0 hPa SSW 7.6 km/h 9.3 km/h 38% 0.0 mm CLR
08:40 28.1 °C 12.4 °C 1011.0 hPa WSW 6.9 km/h 9.3 km/h 38% 0.0 mm CLR
08:45 28.2 °C 12.6 °C 1011.0 hPa WSW 6.9 km/h 9.3 km/h 38% 0.0 mm CLR
08:50 28.3 °C 12.6 °C 1011.1 hPa SW 6.9 km/h 9.3 km/h 38% 0.0 mm CLR
08:55 28.4 °C 12.3 °C 1011.1 hPa SW 6.9 km/h 9.3 km/h 37% 0.0 mm CLR
09:00 28.7 °C 12.6 °C 1011.1 hPa SW 4.8 km/h 14.5 km/h 37% 0.0 mm CLR
09:05 28.8 °C 12.7 °C 1011.1 hPa West 5.8 km/h 10.0 km/h 37% 0.0 mm CLR
09:10 28.9 °C 13.2 °C 1011.1 hPa SW 5.0 km/h 7.4 km/h 38% 0.0 mm CLR
09:15 28.9 °C 12.7 °C 1011.1 hPa SW 5.0 km/h 9.3 km/h 37% 0.0 mm CLR
09:20 28.9 °C 12.7 °C 1011.3 hPa SW 5.8 km/h 9.5 km/h 37% 0.0 mm CLR
09:25 29.1 °C 12.9 °C 1011.3 hPa SSW 5.8 km/h 9.3 km/h 37% 0.0 mm CLR
09:30 29.1 °C 12.9 °C 1011.3 hPa SSW 5.8 km/h 9.3 km/h 37% 0.0 mm CLR
09:35 29.2 °C 13.0 °C 1011.3 hPa SW 5.8 km/h 5.6 km/h 37% 0.0 mm CLR
09:40 29.3 °C 12.7 °C 1011.3 hPa WSW 6.9 km/h 9.3 km/h 36% 0.0 mm CLR
09:45 29.4 °C 12.8 °C 1011.3 hPa SW 6.9 km/h 13.0 km/h 36% 0.0 mm CLR
09:50 29.5 °C 12.8 °C 1011.4 hPa SSW 8.4 km/h 13.0 km/h 36% 0.0 mm CLR
09:55 29.6 °C 12.9 °C 1011.4 hPa SW 8.4 km/h 11.1 km/h 36% 0.0 mm CLR
10:00 29.9 °C 13.2 °C 1011.4 hPa SW 8.4 km/h 9.3 km/h 36% 0.0 mm CLR
10:05 30.1 °C 13.4 °C 1011.4 hPa SW 8.0 km/h 14.5 km/h 36% 0.0 mm CLR
10:10 30.3 °C 13.6 °C 1011.4 hPa SW 6.9 km/h 9.3 km/h 36% 0.0 mm CLR
10:15 30.6 °C 13.4 °C 1011.4 hPa SW 6.9 km/h 11.1 km/h 35% 0.0 mm CLR
10:20 30.6 °C 13.4 °C 1011.4 hPa WSW 8.4 km/h 7.4 km/h 35% 0.0 mm CLR
10:25 30.7 °C 13.1 °C 1011.4 hPa SSW 8.4 km/h 11.1 km/h 34% 0.0 mm CLR
10:30 30.9 °C 13.2 °C 1011.4 hPa SSW 6.4 km/h 10.0 km/h 34% 0.0 mm CLR
10:35 31.1 °C 13.4 °C 1011.5 hPa SW 6.4 km/h 13.0 km/h 34% 0.0 mm CLR
10:40 31.2 °C 13.5 °C 1011.5 hPa South 7.6 km/h 9.3 km/h 34% 0.0 mm CLR
10:45 31.4 °C 13.2 °C 1011.5 hPa South 7.6 km/h 11.1 km/h 33% 0.0 mm CLR
10:50 31.7 °C 13.4 °C 1011.5 hPa SW 5.0 km/h 7.4 km/h 33% 0.0 mm CLR
10:55 31.9 °C 12.7 °C 1011.5 hPa WNW 5.0 km/h 11.1 km/h 31% 0.0 mm CLR
11:00 32.1 °C 12.3 °C 1011.5 hPa WSW 6.4 km/h 11.1 km/h 30% 0.0 mm CLR
11:05 32.2 °C 12.4 °C 1011.6 hPa SSW 6.4 km/h 9.3 km/h 30% 0.0 mm CLR
11:10 32.3 °C 12.5 °C 1011.6 hPa WSW 6.4 km/h 16.7 km/h 30% 0.0 mm CLR
11:15 32.6 °C 12.3 °C 1011.6 hPa WNW 6.4 km/h 11.1 km/h 29% 0.0 mm CLR
11:20 32.7 °C 12.3 °C 1011.6 hPa West 7.6 km/h 11.1 km/h 29% 0.0 mm CLR
11:25 32.8 °C 12.4 °C 1011.6 hPa SW 7.6 km/h 9.3 km/h 29% 0.0 mm CLR
11:30 33.1 °C 12.7 °C 1011.6 hPa SSE 5.0 km/h 3.7 km/h 29% 0.0 mm CLR
11:35 33.7 °C 12.7 °C 1011.6 hPa WSW 5.0 km/h 11.1 km/h 28% 0.0 mm CLR
11:40 33.8 °C 12.2 °C 1011.6 hPa NW 5.0 km/h 14.8 km/h 27% 0.0 mm CLR
11:45 33.8 °C 12.2 °C 1011.6 hPa West 5.0 km/h 3.7 km/h 27% 0.0 mm CLR
11:50 33.9 °C 12.3 °C 1011.6 hPa WNW 5.0 km/h 5.8 km/h 27% 0.0 mm CLR
11:55 34.1 °C 11.9 °C 1011.6 hPa SSE 5.0 km/h 7.4 km/h 26% 0.0 mm CLR
12:00 34.3 °C 12.1 °C 1011.6 hPa West 5.0 km/h 11.1 km/h 26% 0.0 mm CLR
12:05 34.5 °C 11.6 °C 1011.5 hPa SW 5.0 km/h 13.0 km/h 25% 0.0 mm CLR
12:10 34.5 °C 11.6 °C 1011.5 hPa WSW 8.7 km/h 14.8 km/h 25% 0.0 mm CLR
12:15 34.5 °C 11.6 °C 1011.5 hPa West 8.7 km/h 7.4 km/h 25% 0.0 mm CLR
12:20 34.6 °C 11.1 °C 1011.5 hPa SW 7.6 km/h 10.0 km/h 24% 0.0 mm CLR
12:25 34.7 °C 11.2 °C 1011.5 hPa WSW 7.6 km/h 11.1 km/h 24% 0.0 mm CLR
12:30 34.8 °C 11.9 °C 1011.5 hPa WSW 6.4 km/h 10.3 km/h 25% 0.0 mm CLR
12:35 34.8 °C 11.2 °C 1011.4 hPa NW 6.4 km/h 11.1 km/h 24% 0.0 mm CLR
12:40 34.8 °C 11.2 °C 1011.4 hPa ENE 7.6 km/h 3.7 km/h 24% 0.0 mm CLR
12:45 35.2 °C 11.6 °C 1011.4 hPa NNE 7.6 km/h 8.4 km/h 24% 0.0 mm CLR
12:50 35.4 °C 11.1 °C 1011.4 hPa NE 4.7 km/h 7.4 km/h 23% 0.0 mm CLR
12:55 35.5 °C 11.2 °C 1011.4 hPa NE 4.7 km/h 7.4 km/h 23% 0.0 mm CLR
13:00 35.6 °C 11.3 °C 1011.4 hPa NE 3.2 km/h 9.7 km/h 23% 0.0 mm CLR
13:05 35.7 °C 11.3 °C 1011.2 hPa ENE 4.7 km/h 7.4 km/h 23% 0.0 mm CLR
13:10 35.7 °C 11.3 °C 1011.2 hPa NW 5.8 km/h 7.4 km/h 23% 0.0 mm CLR
13:15 35.9 °C 10.8 °C 1011.2 hPa SSW 5.8 km/h 7.4 km/h 22% 0.0 mm CLR
13:20 35.9 °C 10.9 °C 1011.1 hPa West 4.8 km/h 8.0 km/h 22% 0.0 mm CLR
13:25 36.0 °C 10.9 °C 1011.1 hPa NW 4.7 km/h 5.6 km/h 22% 0.0 mm CLR
13:30 36.1 °C 11.0 °C 1011.1 hPa SSW 5.0 km/h 5.8 km/h 22% 0.0 mm CLR
13:35 36.3 °C 10.5 °C 1010.9 hPa NE 5.0 km/h 7.4 km/h 21% 0.0 mm CLR
13:40 36.4 °C 10.6 °C 1010.9 hPa WNW 4.7 km/h 5.8 km/h 21% 0.0 mm CLR
13:45 36.3 °C 10.5 °C 1010.9 hPa NW 4.7 km/h 5.6 km/h 21% 0.0 mm CLR
13:50 36.4 °C 10.6 °C 1010.7 hPa SSE 4.7 km/h 8.4 km/h 21% 0.0 mm CLR
13:55 36.5 °C 11.3 °C 1010.7 hPa WNW 4.7 km/h 7.4 km/h 22% 0.0 mm CLR
14:00 36.7 °C 10.8 °C 1010.7 hPa ESE 4.7 km/h 11.1 km/h 21% 0.0 mm CLR
14:05 36.6 °C 10.7 °C 1010.5 hPa SSE 4.7 km/h 11.1 km/h 21% 0.0 mm CLR
14:10 36.6 °C 11.4 °C 1010.5 hPa SE 7.6 km/h 7.4 km/h 22% 0.0 mm CLR
14:15 36.8 °C 10.9 °C 1010.5 hPa SE 7.6 km/h 8.7 km/h 21% 0.0 mm CLR
14:20 36.9 °C 11.0 °C 1010.4 hPa NNE 5.0 km/h 14.8 km/h 21% 0.0 mm CLR
14:25 36.9 °C 11.0 °C 1010.4 hPa North 5.0 km/h 5.0 km/h 21% 0.0 mm CLR
14:30 36.9 °C 11.0 °C 1010.4 hPa SSE 6.9 km/h 7.4 km/h 21% 0.0 mm CLR
14:35 37.1 °C 11.2 °C 1010.2 hPa NE 6.9 km/h 5.8 km/h 21% 0.0 mm CLR
14:40 37.2 °C 11.2 °C 1010.2 hPa NE 5.0 km/h 18.5 km/h 21% 0.0 mm CLR
14:45 37.1 °C 11.2 °C 1010.2 hPa SE 5.0 km/h 18.5 km/h 21% 0.0 mm CLR
14:50 37.0 °C 11.1 °C 1010.0 hPa ENE 11.1 km/h 5.6 km/h 21% 0.0 mm CLR
14:55 37.2 °C 11.9 °C 1010.0 hPa ESE 11.1 km/h 14.8 km/h 22% 0.0 mm CLR
15:00 37.3 °C 12.0 °C 1010.0 hPa NE 7.6 km/h 13.7 km/h 22% 0.0 mm CLR
15:05 37.3 °C 12.0 °C 1009.9 hPa ESE 7.6 km/h 7.4 km/h 22% 0.0 mm CLR
15:10 37.4 °C 12.8 °C 1009.9 hPa NNE 7.6 km/h 11.1 km/h 23% 0.0 mm CLR
15:15 37.4 °C 12.8 °C 1009.9 hPa NE 7.6 km/h 10.3 km/h 23% 0.0 mm CLR
15:20 37.5 °C 12.8 °C 1009.7 hPa NE 6.9 km/h 11.1 km/h 23% 0.0 mm CLR
15:25 37.3 °C 15.2 °C 1009.7 hPa East 6.9 km/h 11.1 km/h 27% 0.0 mm CLR
15:30 37.4 °C 15.8 °C 1009.7 hPa East 11.1 km/h 25.9 km/h 28% 0.0 mm CLR
15:35 37.6 °C 14.8 °C 1009.7 hPa SSE 11.1 km/h 18.5 km/h 26% 0.0 mm CLR
15:40 37.4 °C 15.2 °C 1009.7 hPa SE 15.6 km/h 27.8 km/h 27% 0.0 mm CLR
15:45 37.3 °C 15.7 °C 1009.7 hPa South 15.6 km/h 27.8 km/h 28% 0.0 mm CLR
15:50 37.3 °C 15.2 °C 1009.7 hPa SE 16.4 km/h 18.5 km/h 27% 0.0 mm CLR
15:55 37.4 °C 15.2 °C 1009.7 hPa SSE 16.4 km/h 27.4 km/h 27% 0.0 mm CLR
16:00 37.3 °C 15.2 °C 1009.7 hPa ESE 15.6 km/h 20.4 km/h 27% 0.0 mm CLR
16:05 37.2 °C 15.1 °C 1009.6 hPa SE 15.6 km/h 27.4 km/h 27% 0.0 mm CLR
16:10 37.3 °C 14.6 °C 1009.6 hPa SE 14.8 km/h 24.1 km/h 26% 0.0 mm CLR
16:15 37.2 °C 13.9 °C 1009.6 hPa East 14.8 km/h 29.6 km/h 25% 0.0 mm CLR
16:20 37.3 °C 14.0 °C 1009.5 hPa SE 14.5 km/h 27.4 km/h 25% 0.0 mm CLR
16:25 37.4 °C 13.4 °C 1009.5 hPa SE 15.6 km/h 27.8 km/h 24% 0.0 mm CLR
16:30 37.5 °C 13.5 °C 1009.5 hPa South 15.6 km/h 23.7 km/h 24% 0.0 mm CLR
16:35 37.4 °C 13.5 °C 1009.4 hPa SE 14.5 km/h 27.4 km/h 24% 0.0 mm CLR
16:40 37.2 °C 13.3 °C 1009.4 hPa ESE 19.0 km/h 33.3 km/h 24% 0.0 mm CLR
16:45 37.1 °C 13.8 °C 1009.4 hPa SE 19.0 km/h 22.2 km/h 25% 0.0 mm CLR
16:50 37.1 °C 13.8 °C 1009.2 hPa East 18.3 km/h 29.6 km/h 25% 0.0 mm CLR
16:55 36.8 °C 14.2 °C 1009.2 hPa ESE 18.3 km/h 29.6 km/h 26% 0.0 mm CLR
17:00 36.8 °C 14.7 °C 1009.2 hPa ESE 22.5 km/h 33.8 km/h 27% 0.0 mm CLR
17:05 36.7 °C 15.8 °C 1009.1 hPa ESE 22.0 km/h 30.6 km/h 29% 0.0 mm CLR
17:10 36.5 °C 15.6 °C 1009.1 hPa ESE 21.7 km/h 22.2 km/h 29% 0.0 mm CLR
17:15 36.6 °C 15.7 °C 1009.1 hPa ESE 21.7 km/h 27.8 km/h 29% 0.0 mm CLR
17:20 36.7 °C 15.8 °C 1009.1 hPa SE 17.2 km/h 28.2 km/h 29% 0.0 mm CLR
17:25 36.6 °C 15.7 °C 1009.1 hPa SE 17.2 km/h 29.6 km/h 29% 0.0 mm CLR
17:30 36.5 °C 15.6 °C 1009.1 hPa SE 20.9 km/h 24.1 km/h 29% 0.0 mm CLR
17:35 36.3 °C 15.9 °C 1009.0 hPa East 20.9 km/h 36.2 km/h 30% 0.0 mm CLR
17:40 36.4 °C 15.6 °C 1009.0 hPa SE 20.9 km/h 37.0 km/h 29% 0.0 mm CLR
17:45 36.6 °C 15.7 °C 1009.0 hPa SE 20.9 km/h 27.4 km/h 29% 0.0 mm CLR
17:50 36.7 °C 15.2 °C 1009.0 hPa SE 16.4 km/h 20.9 km/h 28% 0.0 mm CLR
17:55 36.7 °C 14.7 °C 1009.0 hPa SE 16.4 km/h 29.6 km/h 27% 0.0 mm CLR
18:00 36.6 °C 14.6 °C 1009.0 hPa SE 19.3 km/h 30.6 km/h 27% 0.0 mm CLR
18:05 36.8 °C 14.2 °C 1009.1 hPa ESE 19.3 km/h 27.4 km/h 26% 0.0 mm CLR
18:10 36.7 °C 14.1 °C 1009.1 hPa SE 16.1 km/h 29.6 km/h 26% 0.0 mm CLR
18:15 36.6 °C 14.0 °C 1009.1 hPa South 16.1 km/h 25.9 km/h 26% 0.0 mm CLR
18:20 36.8 °C 13.6 °C 1009.0 hPa SE 14.0 km/h 25.9 km/h 25% 0.0 mm CLR
18:25 36.8 °C 13.6 °C 1009.0 hPa SE 14.0 km/h 20.4 km/h 25% 0.0 mm CLR
18:29 36.8 °C 13.6 °C 1009.0 hPa SE 14.8 km/h 16.7 km/h 25% 0.0 mm CLR
18:35 36.7 °C 13.4 °C 1009.1 hPa ESE 14.8 km/h 20.9 km/h 25% 0.0 mm CLR
18:40 36.4 °C 13.2 °C 1009.1 hPa SE 17.2 km/h 27.8 km/h 25% 0.0 mm CLR
18:45 36.4 °C 13.8 °C 1009.1 hPa SE 17.2 km/h 24.1 km/h 26% 0.0 mm CLR
18:50 36.2 °C 14.2 °C 1009.0 hPa ESE 16.4 km/h 22.2 km/h 27% 0.0 mm CLR
18:55 36.1 °C 14.2 °C 1009.0 hPa SSE 16.4 km/h 20.4 km/h 27% 0.0 mm CLR
19:00 35.9 °C 14.0 °C 1009.0 hPa ESE 16.1 km/h 24.1 km/h 27% 0.0 mm CLR
19:05 35.9 °C 13.4 °C 1008.9 hPa SSE 16.1 km/h 16.7 km/h 26% 0.0 mm CLR
19:10 35.9 °C 13.4 °C 1008.9 hPa South 13.0 km/h 22.2 km/h 26% 0.0 mm CLR
19:15 35.7 °C 13.8 °C 1008.9 hPa SSE 13.0 km/h 29.6 km/h 27% 0.0 mm CLR
19:20 35.5 °C 13.6 °C 1008.9 hPa SE 16.1 km/h 21.7 km/h 27% 0.0 mm CLR
19:25 35.3 °C 14.0 °C 1008.9 hPa South 16.1 km/h 31.5 km/h 28% 0.0 mm CLR
19:30 35.1 °C 13.3 °C 1008.9 hPa South 17.2 km/h 20.4 km/h 27% 0.0 mm CLR
19:35 34.9 °C 13.7 °C 1009.0 hPa SSE 17.2 km/h 20.4 km/h 28% 0.0 mm CLR
19:40 34.8 °C 13.6 °C 1009.0 hPa SSE 16.4 km/h 18.5 km/h 28% 0.0 mm CLR
19:45 34.9 °C 13.1 °C 1009.0 hPa SE 16.4 km/h 14.8 km/h 27% 0.0 mm CLR
19:50 34.8 °C 12.4 °C 1009.0 hPa SE 11.1 km/h 16.7 km/h 26% 0.0 mm CLR
19:55 34.8 °C 12.4 °C 1009.0 hPa SE 11.1 km/h 18.5 km/h 26% 0.0 mm CLR
20:00 34.7 °C 11.8 °C 1009.0 hPa SE 11.9 km/h 22.0 km/h 25% 0.0 mm CLR
20:05 34.7 °C 12.4 °C 1009.1 hPa East 11.9 km/h 9.5 km/h 26% 0.0 mm CLR
20:10 34.6 °C 12.3 °C 1009.1 hPa SE 10.0 km/h 20.4 km/h 26% 0.0 mm CLR
20:15 34.4 °C 12.1 °C 1009.1 hPa ESE 10.0 km/h 13.7 km/h 26% 0.0 mm CLR
20:20 34.4 °C 12.7 °C 1009.2 hPa ESE 10.3 km/h 13.0 km/h 27% 0.0 mm CLR
20:25 34.3 °C 13.2 °C 1009.2 hPa SE 10.3 km/h 9.3 km/h 28% 0.0 mm CLR
20:30 34.2 °C 13.1 °C 1009.2 hPa ESE 8.4 km/h 14.8 km/h 28% 0.0 mm CLR
20:35 34.1 °C 13.6 °C 1009.3 hPa SE 8.4 km/h 9.3 km/h 29% 0.0 mm CLR
20:40 33.9 °C 13.9 °C 1009.3 hPa SE 6.9 km/h 11.1 km/h 30% 0.0 mm CLR
20:45 33.8 °C 13.8 °C 1009.3 hPa ESE 6.9 km/h 7.4 km/h 30% 0.0 mm CLR
20:50 33.7 °C 14.2 °C 1009.4 hPa SE 6.4 km/h 7.4 km/h 31% 0.0 mm CLR
20:55 33.6 °C 14.1 °C 1009.4 hPa SSE 6.4 km/h 5.6 km/h 31% 0.0 mm CLR
21:00 33.5 °C 14.1 °C 1009.4 hPa ESE 3.9 km/h 3.7 km/h 31% 0.0 mm CLR
21:05 33.4 °C 14.4 °C 1009.5 hPa ESE 3.9 km/h 3.7 km/h 32% 0.0 mm CLR
21:10 33.3 °C 14.4 °C 1009.5 hPa ESE 2.3 km/h 5.6 km/h 32% 0.0 mm CLR
21:15 33.2 °C 14.3 °C 1009.5 hPa North 2.3 km/h 5.0 km/h 32% 0.0 mm CLR
21:20 33.0 °C 14.6 °C 1009.8 hPa North 3.2 km/h 4.7 km/h 33% 0.0 mm CLR
21:25 32.8 °C 14.4 °C 1009.8 hPa NE 3.2 km/h 5.6 km/h 33% 0.0 mm CLR
21:30 32.7 °C 14.3 °C 1009.8 hPa NE 3.2 km/h 5.6 km/h 33% 0.0 mm CLR
21:35 32.6 °C 14.7 °C 1009.9 hPa NE 3.2 km/h 4.7 km/h 34% 0.0 mm CLR
21:40 32.4 °C 14.1 °C 1009.9 hPa NE 3.9 km/h 5.6 km/h 33% 0.0 mm CLR
21:45 32.4 °C 14.5 °C 1009.9 hPa NNE 3.9 km/h 5.6 km/h 34% 0.0 mm CLR
21:50 32.2 °C 14.8 °C 1010.2 hPa NW 3.9 km/h 7.4 km/h 35% 0.0 mm CLR
21:55 31.9 °C 14.6 °C 1010.2 hPa NNE 3.9 km/h 7.4 km/h 35% 0.0 mm CLR
22:00 31.8 °C 14.9 °C 1010.2 hPa North 4.7 km/h 7.4 km/h 36% 0.0 mm CLR
22:05 31.6 °C 14.7 °C 1010.3 hPa NW 4.7 km/h 5.6 km/h 36% 0.0 mm CLR
22:10 31.4 °C 14.6 °C 1010.3 hPa NW 3.2 km/h 3.9 km/h 36% 0.0 mm CLR
22:15 31.3 °C 14.9 °C 1010.3 hPa East 3.2 km/h 5.8 km/h 37% 0.0 mm CLR
22:20 31.3 °C 14.9 °C 1010.6 hPa ESE 2.9 km/h 3.9 km/h 37% 0.0 mm CLR
22:25 31.2 °C 16.0 °C 1010.6 hPa WNW 2.9 km/h 9.3 km/h 40% 0.0 mm CLR
22:30 31.0 °C 15.8 °C 1010.6 hPa NW 3.9 km/h 3.7 km/h 40% 0.0 mm CLR
22:35 30.8 °C 16.4 °C 1010.6 hPa NW 3.9 km/h 7.4 km/h 42% 0.0 mm CLR
22:40 30.7 °C 16.3 °C 1010.6 hPa NW 3.2 km/h 7.4 km/h 42% 0.0 mm CLR
22:45 30.5 °C 16.5 °C 1010.6 hPa NW 3.2 km/h 7.4 km/h 43% 0.0 mm CLR
22:50 30.3 °C 16.7 °C 1010.6 hPa NW 5.0 km/h 9.5 km/h 44% 0.0 mm CLR
22:55 30.0 °C 16.8 °C 1010.6 hPa NW 5.0 km/h 7.4 km/h 45% 0.0 mm CLR
23:00 29.8 °C 16.9 °C 1010.6 hPa WNW 5.0 km/h 7.4 km/h 46% 0.0 mm CLR
23:05 29.6 °C 16.8 °C 1010.9 hPa NW 5.0 km/h 7.6 km/h 46% 0.0 mm CLR
23:10 29.4 °C 16.9 °C 1010.9 hPa NNW 5.0 km/h 5.6 km/h 47% 0.0 mm CLR
23:15 29.3 °C 16.5 °C 1010.9 hPa NW 5.0 km/h 5.6 km/h 46% 0.0 mm CLR
23:20 29.3 °C 16.8 °C 1011.0 hPa NW 4.7 km/h 7.4 km/h 47% 0.0 mm CLR
23:25 29.2 °C 16.7 °C 1011.0 hPa NW 4.7 km/h 9.3 km/h 47% 0.0 mm CLR
23:30 29.1 °C 16.9 °C 1011.0 hPa WNW 6.4 km/h 7.4 km/h 48% 0.0 mm CLR
23:35 28.9 °C 17.1 °C 1011.0 hPa NW 6.4 km/h 8.4 km/h 49% 0.0 mm CLR
23:40 28.8 °C 17.3 °C 1011.0 hPa NW 5.0 km/h 7.4 km/h 50% 0.0 mm CLR
23:45 28.8 °C 17.7 °C 1011.0 hPa NNW 5.0 km/h 7.4 km/h 51% 0.0 mm CLR
23:50 28.7 °C 17.9 °C 1011.0 hPa NW 4.7 km/h 5.6 km/h 52% 0.0 mm CLR
23:55 28.6 °C 17.8 °C 1011.0 hPa NW 4.7 km/h   52% 0.0 mm CLR
Murcia-Puente Tocinos, España
Compliments of Weather Underground - 2.75 mb

La estación de MeteoMurcia.com, publica sus datos en los siguientes proyectos:

Weather Underground PWS IMURCIAP2 Meteoclimatic www.awekas.at

W3Counter
Web Analytics